Location: Iesi
(43.5167°N, 13.2333°E)
Time: 05:33:49
(UTC+00:00)

SL-4 R/B - Visible Passes

Search period start: 26 November 2020 00:00
Search period end: 06 December 2020 00:00
Orbit: 427 x 665 km, 51.6° (Epoch: 25 November)

Date Brightness Start Highest point End Pass type
(mag) Time Alt. Az. Time Alt. Az. Time Alt. Az.
26 Nov 2.8 04:33:39 31° NNW 04:33:58 31° NNW 04:37:22 10° NE visible
27 Nov 3.0 04:27:30 29° NNW 04:27:30 29° NNW 04:30:47 10° NE visible
28 Nov 3.2 04:21:18 26° N 04:21:18 26° N 04:24:13 10° NE visible
29 Nov 3.4 04:15:03 24° N 04:15:03 24° N 04:17:41 10° NE visible
30 Nov 3.6 04:08:46 23° NNE 04:08:46 23° NNE 04:11:10 10° NE visible
30 Nov 2.9 05:44:54 10° NW 05:48:24 32° NNE 05:51:40 10° E visible
01 Dec 3.7 04:02:28 22° NNE 04:02:28 22° NNE 04:04:41 10° NE visible
01 Dec 2.7 05:38:15 10° NW 05:41:52 38° NNE 05:45:15 10° E visible
02 Dec 3.8 03:56:10 21° NNE 03:56:10 21° NNE 03:58:14 10° ENE visible
02 Dec 2.4 05:31:45 11° NW 05:35:20 45° NNE 05:38:48 10° E visible
03 Dec 4.0 03:49:53 21° NE 03:49:53 21° NE 03:51:47 10° ENE visible
03 Dec 2.1 05:25:28 13° NW 05:28:46 56° NNE 05:32:18 10° ESE visible
04 Dec 4.1 03:43:37 21° NE 03:43:37 21° NE 03:45:22 10° ENE visible
04 Dec 1.9 05:19:12 16° NW 05:22:10 71° NNE 05:25:46 10° ESE visible
05 Dec 4.2 03:37:22 20° ENE 03:37:22 20° ENE 03:38:57 10° ENE visible
05 Dec 1.7 05:12:57 20° WNW 05:15:34 89° SSW 05:19:10 10° SE visible
